| time (UTC) | temp C | wind direction | speed KPH | gust KPH | rain 1hr cm | rain 24hr cm | rain mn cm | humidity % | barometer mb |
| 20260831183157 | 18 | 300 | 4.8 | 19.3 | 0.00 | 0.58 | 0.03 | 68 | 1016.1 |
| 20260831182653 | 18 | 279 | 9.7 | 20.9 | 0.00 | 0.58 | 0.03 | 68 | 1016.0 |
| 20260831182154 | 18 | 310 | 9.7 | 20.9 | 0.00 | 0.58 | 0.03 | 68 | 1015.9 |
| 20260831181653 | 19 | 262 | 9.7 | 20.9 | 0.00 | 0.58 | 0.03 | 68 | 1015.9 |
| 20260831181150 | 19 | 314 | 6.4 | 16.1 | 0.00 | 0.58 | 0.03 | 69 | 1015.8 |
| 20260831180651 | 19 | 261 | 9.7 | 25.7 | 0.00 | 0.58 | 0.03 | 71 | 1015.6 |
| 20260831180150 | 19 | 295 | 9.7 | 25.7 | 0.00 | 0.58 | 0.03 | 75 | 1015.6 |
| 20260831175933 | 19 | 296 | 3.2 | 11.3 | 0.00 | 0.58 | 0.03 | 76 | 1015.4 |
| 20260831175148 | 19 | 244 | 3.2 | 9.7 | 0.00 | 0.58 | 0.03 | 75 | 1015.4 |
| 20260831174646 | 19 | 285 | 4.8 | 9.7 | 0.00 | 0.58 | 0.03 | 75 | 1015.4 |
| 20260831174146 | 19 | 278 | 3.2 | 14.5 | 0.00 | 0.58 | 0.03 | 74 | 1015.3 |
| 20260831173647 | 19 | 245 | 6.4 | 14.5 | 0.00 | 0.58 | 0.03 | 74 | 1015.3 |
| 20260831173146 | 19 | 252 | 3.2 | 11.3 | 0.00 | 0.58 | 0.03 | 72 | 1015.3 |
| 20260831172934 | 20 | 262 | 8.0 | 11.3 | 0.00 | 0.58 | 0.03 | 71 | 1015.2 |
| 20260831172145 | 20 | 243 | 4.8 | 14.5 | 0.00 | 0.58 | 0.03 | 69 | 1015.2 |
| 20260831171644 | 20 | 295 | 6.4 | 16.1 | 0.00 | 0.58 | 0.03 | 68 | 1015.0 |
| 20260831171143 | 20 | 337 | 6.4 | 20.9 | 0.00 | 0.58 | 0.03 | 68 | 1014.8 |
| 20260831170642 | 20 | 321 | 11.3 | 20.9 | 0.00 | 0.58 | 0.03 | 68 | 1014.9 |
| 20260831170425 | 20 | 319 | 11.3 | 19.3 | 0.00 | 0.58 | 0.03 | 67 | 1014.6 |
| 20260831165640 | 21 | 313 | 9.7 | 20.9 | 0.00 | 0.58 | 0.03 | 66 | 1014.6 |
| 20260831165142 | 21 | 289 | 11.3 | 20.9 | 0.00 | 0.58 | 0.03 | 66 | 1014.5 |
| 20260831164923 | 21 | 290 | 8.0 | 17.7 | 0.00 | 0.58 | 0.03 | 65 | 1014.4 |
| 20260831164140 | 21 | 266 | 8.0 | 22.5 | 0.00 | 0.58 | 0.03 | 66 | 1014.3 |
| 20260831163640 | 21 | 316 | 11.3 | 22.5 | 0.00 | 0.58 | 0.03 | 65 | 1014.2 |
| 20260831163140 | 21 | 235 | 4.8 | 27.4 | 0.00 | 0.58 | 0.03 | 64 | 1014.1 |
| 20260831162922 | 21 | 278 | 6.4 | 27.4 | 0.00 | 0.58 | 0.03 | 63 | 1014.1 |
| 20260831162139 | 21 | 281 | 6.4 | 19.3 | 0.00 | 0.58 | 0.03 | 63 | 1014.1 |
| 20260831161639 | 22 | 282 | 9.7 | 19.3 | 0.00 | 0.58 | 0.03 | 63 | 1014.1 |
| 20260831161137 | 22 | 245 | 6.4 | 14.5 | 0.00 | 0.58 | 0.03 | 63 | 1014.1 |
| 20260831160639 | 22 | 282 | 4.8 | 16.1 | 0.00 | 0.58 | 0.03 | 62 | 1014.0 |
| 20260831160150 | 22 | 348 | 9.7 | 19.3 | 0.00 | 0.58 | 0.03 | 61 | 1014.1 |
| 20260831155634 | 23 | 300 | 8.0 | 19.3 | 0.00 | 0.58 | 0.03 | 61 | 1013.9 |
| 20260831155137 | 23 | 305 | 8.0 | 11.3 | 0.00 | 0.58 | 0.03 | 61 | 1014.0 |
| 20260831154735 | 23 | 265 | 8.0 | 16.1 | 0.00 | 0.58 | 0.03 | 64 | 1013.9 |
| 20260831154718 | 23 | 275 | 6.4 | 14.5 | 0.00 | 0.58 | 0.03 | 64 | 1013.9 |
| 20260831153633 | 22 | 271 | 9.7 | 16.1 | 0.00 | 0.58 | 0.03 | 70 | 1013.9 |
| 20260831153434 | 21 | 274 | 8.0 | 11.3 | 0.00 | 0.58 | 0.03 | 70 | 1013.8 |
| 20260831152635 | 20 | 278 | 6.4 | 11.3 | 0.00 | 0.58 | 0.03 | 70 | 1013.9 |
| 20260831152417 | 20 | 282 | 3.2 | 16.1 | 0.00 | 0.58 | 0.03 | 68 | 1013.9 |
| 20260831151634 | 20 | 292 | 11.3 | 16.1 | 0.00 | 0.58 | 0.03 | 70 | 1013.8 |
| 20260831151134 | 20 | 275 | 4.8 | 16.1 | 0.00 | 0.58 | 0.03 | 70 | 1013.9 |
| 20260831150630 | 21 | 299 | 11.3 | 19.3 | 0.00 | 0.58 | 0.03 | 70 | 1013.8 |
| 20260831150426 | 21 | 317 | 11.3 | 19.3 | 0.00 | 0.58 | 0.03 | 71 | 1013.8 |
| 20260831145645 | 21 | 323 | 6.4 | 16.1 | 0.00 | 0.58 | 0.03 | 71 | 1013.8 |
| 20260831145313 | 21 | 299 | 9.7 | 16.1 | 0.00 | 0.58 | 0.03 | 71 | 1013.6 |
| 20260831145249 | 21 | 245 | 6.4 | 16.1 | 0.00 | 0.58 | 0.03 | 70 | 1013.7 |
| 20260831144129 | 21 | 293 | 11.3 | 16.1 | 0.00 | 0.58 | 0.03 | 71 | 1013.6 |
| 20260831143630 | 20 | 0 | 9.7 | 16.1 | 0.00 | 0.58 | 0.03 | 73 | 1013.5 |
| 20260831143122 | 20 | 268 | 4.8 | 16.1 | 0.00 | 0.58 | 0.03 | 71 | 1013.4 |
| 20260831142622 | 20 | 293 | 8.0 | 16.1 | 0.00 | 0.58 | 0.03 | 71 | 1013.4 |
| 20260831142121 | 20 | 252 | 8.0 | 16.1 | 0.00 | 0.58 | 0.03 | 70 | 1013.4 |
| 20260831141621 | 20 | 248 | 8.0 | 16.1 | 0.00 | 0.58 | 0.03 | 69 | 1013.2 |
| 20260831141118 | 20 | 252 | 8.0 | 19.3 | 0.00 | 0.58 | 0.03 | 68 | 1013.2 |
| 20260831140616 | 21 | 255 | 8.0 | 25.7 | 0.00 | 0.58 | 0.03 | 68 | 1013.2 |
| 20260831140129 | 22 | 268 | 16.1 | 25.7 | 0.00 | 0.58 | 0.03 | 60 | 1013.1 |
| 20260831135909 | 22 | 288 | 9.7 | 24.1 | 0.00 | 0.58 | 0.03 | 60 | 1013.0 |
| 20260831135415 | 23 | 326 | 9.7 | 22.5 | 0.00 | 0.58 | 0.03 | 60 | 1012.8 |
| 20260831134615 | 24 | 292 | 16.1 | 22.5 | 0.00 | 0.58 | 0.03 | 59 | 1012.6 |
| 20260831134114 | 24 | 289 | 9.7 | 16.1 | 0.00 | 0.58 | 0.03 | 60 | 1012.6 |
| 20260831133624 | 23 | 296 | 9.7 | 19.3 | 0.00 | 0.58 | 0.03 | 60 | 1012.6 |
| 20260831133112 | 23 | 295 | 6.4 | 19.3 | 0.00 | 0.58 | 0.03 | 63 | 1012.5 |
| 20260831132609 | 23 | 292 | 9.7 | 16.1 | 0.00 | 0.58 | 0.03 | 63 | 1012.5 |
| 20260831132136 | 22 | 257 | 9.7 | 19.3 | 0.00 | 0.58 | 0.03 | 66 | 1012.3 |
| 20260831132132 | 21 | 282 | 6.4 | 19.3 | 0.00 | 0.58 | 0.03 | 66 | 1012.3 |
| 20260831132126 | 22 | 266 | 6.4 | 17.7 | 0.00 | 0.58 | 0.03 | 66 | 1012.5 |
| 20260831132122 | 22 | 298 | 8.0 | 19.3 | 0.00 | 0.58 | 0.03 | 66 | 1012.4 |
| 20260831132115 | 22 | 274 | 11.3 | 14.5 | 0.00 | 0.58 | 0.03 | 66 | 1012.4 |
| 20260831125609 | 22 | 275 | 9.7 | 19.3 | 0.00 | 0.58 | 0.03 | 64 | 1012.2 |
| 20260831125059 | 22 | 285 | 11.3 | 19.3 | 0.00 | 0.58 | 0.03 | 63 | 1012.0 |
| 20260831124608 | 23 | 250 | 8.0 | 22.5 | 0.00 | 0.58 | 0.03 | 64 | 1012.1 |
| 20260831124055 | 22 | 288 | 9.7 | 22.5 | 0.00 | 0.58 | 0.03 | 65 | 1011.9 |
| 20260831123600 | 22 | 258 | 9.7 | 20.9 | 0.00 | 0.58 | 0.03 | 66 | 1012.0 |
| 20260831123113 | 22 | 293 | 11.3 | 20.9 | 0.00 | 0.58 | 0.03 | 65 | 1011.9 |
| 20260831122557 | 21 | 302 | 12.9 | 20.9 | 0.00 | 0.58 | 0.03 | 66 | 1011.9 |
| 20260831122052 | 21 | 307 | 6.4 | 20.9 | 0.00 | 0.58 | 0.03 | 66 | 1011.7 |
| 20260831121546 | 22 | 250 | 9.7 | 16.1 | 0.00 | 0.58 | 0.03 | 64 | 1011.7 |
| 20260831121448 | 22 | 305 | 11.3 | 19.3 | 0.00 | 0.58 | 0.03 | 66 | 1011.7 |
| 20260831120728 | 22 | 289 | 11.3 | 29.0 | 0.00 | 0.58 | 0.03 | 65 | 1011.5 |
| 20260831120651 | 22 | 271 | 8.0 | 29.0 | 0.00 | 0.58 | 0.03 | 65 | 1011.7 |
| 20260831115533 | 22 | 309 | 11.3 | 25.7 | 0.00 | 0.58 | 0.03 | 66 | 1011.5 |
| 20260831115046 | 21 | 298 | 9.7 | 25.7 | 0.00 | 0.58 | 0.03 | 66 | 1011.4 |
| 20260831114544 | 21 | 312 | 12.9 | 24.1 | 0.00 | 0.58 | 0.03 | 68 | 1011.3 |
| 20260831114046 | 21 | 252 | 8.0 | 22.5 | 0.00 | 0.58 | 0.03 | 69 | 1011.3 |
| 20260831113844 | 21 | 283 | 12.9 | 24.1 | 0.00 | 0.58 | 0.03 | 68 | 1011.3 |
| 20260831113051 | 21 | 303 | 14.5 | 24.1 | 0.00 | 0.58 | 0.03 | 69 | 1011.1 |
| 20260831112521 | 21 | 316 | 9.7 | 24.1 | 0.00 | 0.58 | 0.03 | 71 | 1011.1 |
| 20260831112038 | 21 | 324 | 12.9 | 24.1 | 0.00 | 0.58 | 0.03 | 70 | 1011.1 |
| 20260831111846 | 20 | 341 | 8.0 | 20.9 | 0.00 | 0.58 | 0.03 | 72 | 1011.0 |
| 20260831111441 | 20 | 331 | 9.7 | 20.9 | 0.00 | 0.58 | 0.03 | 71 | 1010.9 |
| 20260831110847 | 20 | 302 | 6.4 | 22.5 | 0.00 | 0.58 | 0.03 | 72 | 1010.7 |
| 20260831110831 | 20 | 285 | 11.3 | 22.5 | 0.00 | 0.58 | 0.03 | 72 | 1010.8 |
| 20260831110718 | 20 | 269 | 9.7 | 22.5 | 0.00 | 0.58 | 0.03 | 70 | 1010.8 |
| 20260831105036 | 20 | 327 | 8.0 | 22.5 | 0.00 | 0.58 | 0.03 | 73 | 1010.7 |
| 20260831104525 | 20 | 296 | 8.0 | 19.3 | 0.00 | 0.58 | 0.03 | 73 | 1010.6 |
| 20260831104036 | 20 | 257 | 9.7 | 25.7 | 0.00 | 0.58 | 0.03 | 72 | 1010.5 |
| 20260831103521 | 19 | 290 | 8.0 | 25.7 | 0.00 | 0.58 | 0.03 | 74 | 1010.5 |
| 20260831103050 | 19 | 244 | 9.7 | 20.9 | 0.00 | 0.58 | 0.03 | 74 | 1010.4 |
| 20260831102521 | 19 | 295 | 6.4 | 22.5 | 0.00 | 0.58 | 0.03 | 75 | 1010.4 |
| 20260831102039 | 19 | 283 | 12.9 | 25.7 | 0.00 | 0.58 | 0.03 | 74 | 1010.3 |
| 20260831101524 | 18 | 250 | 9.7 | 25.7 | 0.00 | 0.58 | 0.03 | 75 | 1010.3 |
| 20260831101037 | 18 | 286 | 6.4 | 19.3 | 0.00 | 0.58 | 0.03 | 76 | 1010.1 |
| 20260831100630 | 18 | 0.0 | 0.0 | 0.00 | 0.58 | 0.03 | 79 | 1010.2 | |
| 20260831100621 | 18 | 0.0 | 0.0 | 0.00 | 0.58 | 0.03 | 76 | 1010.1 | |
| 20260831100555 | 18 | 314 | 9.7 | 19.3 | 0.00 | 0.58 | 0.03 | 75 | 1010.2 |
| 20260831095003 | 17 | 0.0 | 0.0 | 0.00 | 0.58 | 0.03 | 79 | 1010.1 | |
| 20260831094501 | 17 | 0.0 | 0.0 | 0.00 | 0.58 | 0.03 | 80 | 1010.0 | |
| 20260831093959 | 17 | 0.0 | 0.0 | 0.00 | 0.58 | 0.03 | 80 | 1009.9 | |
| 20260831093457 | 17 | 0.0 | 0.0 | 0.00 | 0.58 | 0.03 | 82 | 1009.8 | |
| 20260831093001 | 17 | 0.0 | 0.0 | 0.00 | 0.58 | 0.03 | 82 | 1009.8 | |
| 20260831092453 | 17 | 0.0 | 0.0 | 0.00 | 0.58 | 0.03 | 81 | 1009.8 | |
| 20260831092001 | 17 | 0.0 | 0.0 | 0.00 | 0.58 | 0.03 | 83 | 1009.7 | |
| 20260831091448 | 16 | 0.0 | 0.0 | 0.00 | 0.58 | 0.03 | 83 | 1009.6 | |
| 20260831090944 | 16 | 0.0 | 0.0 | 0.00 | 0.58 | 0.03 | 83 | 1009.5 | |
| 20260831090445 | 16 | 0.0 | 0.0 | 0.00 | 0.58 | 0.03 | 84 | 1009.4 | |
| 20260831085943 | 16 | 0.0 | 0.0 | 0.00 | 0.58 | 0.03 | 85 | 1009.3 | |
| 20260831085443 | 16 | 0.0 | 0.0 | 0.00 | 0.58 | 0.03 | 84 | 1009.3 | |
| 20260831084943 | 16 | 0.0 | 0.0 | 0.00 | 0.58 | 0.03 | 85 | 1009.1 | |
| 20260831084443 | 16 | 0.0 | 0.0 | 0.00 | 0.58 | 0.03 | 85 | 1009.0 | |
| 20260831083942 | 16 | 0.0 | 0.0 | 0.00 | 0.58 | 0.03 | 86 | 1008.9 | |
| 20260831083443 | 16 | 0.0 | 0.0 | 0.00 | 0.58 | 0.03 | 86 | 1008.8 | |
| 20260831082940 | 16 | 0.0 | 0.0 | 0.00 | 0.58 | 0.03 | 86 | 1008.8 | |
| 20260831082444 | 15 | 0.0 | 0.0 | 0.00 | 0.58 | 0.03 | 86 | 1008.8 | |
| 20260831082203 | 15 | 0.0 | 0.0 | 0.00 | 0.58 | 0.03 | 87 | 1008.6 | |
| 20260831081943 | 15 | 0.0 | 0.0 | 0.00 | 0.58 | 0.03 | 87 | 1008.6 | |
| 20260831081444 | 15 | 0.0 | 0.0 | 0.00 | 0.58 | 0.03 | 87 | 1008.6 | |
| 20260831080941 | 15 | 0.0 | 0.0 | 0.00 | 0.58 | 0.03 | 87 | 1008.5 | |
| 20260831080446 | 15 | 0.0 | 0.0 | 0.00 | 0.58 | 0.03 | 88 | 1008.4 | |
| 20260831075938 | 15 | 0.0 | 0.0 | 0.00 | 0.58 | 0.03 | 88 | 1008.2 | |
| 20260831075433 | 15 | 0.0 | 0.0 | 0.00 | 0.58 | 0.03 | 88 | 1008.2 | |
| 20260831074932 | 15 | 0.0 | 0.0 | 0.00 | 0.58 | 0.03 | 89 | 1008.1 | |
| 20260831074436 | 14 | 0.0 | 0.0 | 0.00 | 0.58 | 0.03 | 89 | 1008.0 | |
| 20260831074157 | 14 | 0.0 | 0.0 | 0.00 | 0.58 | 0.03 | 89 | 1007.9 | |
| 20260831073941 | 14 | 0.0 | 0.0 | 0.00 | 0.58 | 0.03 | 89 | 1007.9 | |
| 20260831073646 | 14 | 0.0 | 0.0 | 0.00 | 0.58 | 0.03 | 89 | 1007.8 | |
| 20260831073547 | 14 | 0.0 | 0.0 | 0.00 | 0.58 | 0.03 | 89 | 1007.9 | |
| 20260831072433 | 14 | 0.0 | 0.0 | 0.00 | 0.58 | 0.03 | 90 | 1007.8 | |
| 20260831071935 | 14 | 0.0 | 0.0 | 0.00 | 0.58 | 0.03 | 90 | 1007.8 | |
| 20260831071436 | 14 | 0.0 | 0.0 | 0.00 | 0.58 | 0.03 | 90 | 1007.7 | |
| 20260831070934 | 14 | 0.0 | 0.0 | 0.00 | 0.58 | 0.03 | 90 | 1007.5 | |
| 20260831070430 | 14 | 0.0 | 0.0 | 0.00 | 0.58 | 0.03 | 90 | 1007.4 | |
| 20260831070338 | 14 | 0.0 | 0.0 | 0.00 | 0.58 | 0.03 | 90 | 1007.4 | |
| 20260831065427 | 14 | 0.0 | 0.0 | 0.00 | 0.58 | 0.03 | 91 | 1007.3 | |
| 20260831064921 | 13 | 0.0 | 0.0 | 0.00 | 0.58 | 0.03 | 92 | 1007.2 | |
| 20260831064421 | 13 | 0.0 | 0.0 | 0.00 | 0.58 | 0.03 | 92 | 1007.1 | |
| 20260831063921 | 13 | 0.0 | 0.0 | 0.00 | 0.58 | 0.03 | 92 | 1007.1 | |
| 20260831063422 | 13 | 0.0 | 0.0 | 0.00 | 0.58 | 0.03 | 92 | 1007.0 | |
| 20260831062923 | 13 | 0.0 | 0.0 | 0.00 | 0.58 | 0.03 | 92 | 1006.9 | |
| 20260831062419 | 13 | 0.0 | 0.0 | 0.00 | 0.58 | 0.03 | 92 | 1006.9 | |
| 20260831061918 | 13 | 0.0 | 0.0 | 0.00 | 0.58 | 0.03 | 91 | 1006.9 | |
| 20260831061419 | 13 | 0.0 | 0.0 | 0.00 | 0.58 | 0.03 | 91 | 1006.7 | |
| 20260831061252 | 13 | 0.0 | 0.0 | 0.00 | 0.58 | 0.03 | 91 | 1006.8 | |
| 20260831060415 | 13 | 0.0 | 0.0 | 0.00 | 0.58 | 0.03 | 91 | 1006.6 | |
| 20260831055913 | 13 | 0.0 | 0.0 | 0.00 | 0.58 | 0.03 | 91 | 1006.6 | |
| 20260831055412 | 13 | 0.0 | 0.0 | 0.00 | 0.58 | 0.03 | 91 | 1006.7 | |
| 20260831054909 | 13 | 0.0 | 0.0 | 0.00 | 0.58 | 0.03 | 91 | 1006.5 | |
| 20260831054407 | 13 | 0.0 | 0.0 | 0.00 | 0.58 | 0.03 | 91 | 1006.4 | |
| 20260831053907 | 13 | 0.0 | 0.0 | 0.00 | 0.58 | 0.03 | 91 | 1006.4 | |
| 20260831053720 | 13 | 0.0 | 0.0 | 0.00 | 0.58 | 0.03 | 91 | 1006.4 | |
| 20260831053309 | 13 | 0.0 | 0.0 | 0.00 | 0.58 | 0.03 | 91 | 1006.4 | |
| 20260831052710 | 13 | 0.0 | 0.0 | 0.00 | 0.58 | 0.03 | 91 | 1006.1 | |
| 20260831051904 | 13 | 0.0 | 0.0 | 0.00 | 0.58 | 0.03 | 91 | 1006.0 | |
| 20260831051402 | 13 | 0.0 | 0.0 | 0.00 | 0.58 | 0.03 | 91 | 1006.0 | |
| 20260831050859 | 13 | 0.0 | 0.0 | 0.00 | 0.58 | 0.03 | 91 | 1005.9 | |
| 20260831050412 | 13 | 0.0 | 0.0 | 0.00 | 0.58 | 0.03 | 91 | 1005.9 | |
| 20260831045859 | 13 | 0.0 | 0.0 | 0.00 | 0.58 | 0.03 | 92 | 1005.8 | |
| 20260831045357 | 13 | 0.0 | 0.0 | 0.00 | 0.58 | 0.03 | 92 | 1005.7 | |
| 20260831044857 | 13 | 0.0 | 0.0 | 0.00 | 0.58 | 0.03 | 91 | 1005.6 | |
| 20260831044404 | 12 | 0.0 | 0.0 | 0.00 | 0.58 | 0.03 | 91 | 1005.5 | |
| 20260831044255 | 12 | 0.0 | 0.0 | 0.00 | 0.58 | 0.03 | 91 | 1005.5 | |
| 20260831043358 | 12 | 0.0 | 0.0 | 0.00 | 0.58 | 0.03 | 91 | 1005.4 | |
| 20260831042857 | 12 | 0.0 | 0.0 | 0.00 | 0.58 | 0.03 | 91 | 1005.4 | |
| 20260831042659 | 12 | 0.0 | 0.0 | 0.00 | 0.58 | 0.03 | 91 | 1005.4 | |
| 20260831042233 | 12 | 0.0 | 0.0 | 0.00 | 0.58 | 0.03 | 91 | 1005.4 | |
| 20260831041352 | 12 | 0.0 | 0.0 | 0.00 | 0.58 | 0.03 | 91 | 1005.4 | |
| 20260831040857 | 12 | 0.0 | 0.0 | 0.00 | 0.58 | 0.03 | 90 | 1005.3 | |
| 20260831040352 | 12 | 0.0 | 0.0 | 0.00 | 0.58 | 0.03 | 90 | 1005.2 | |
| 20260831035851 | 12 | 0.0 | 0.0 | 0.00 | 0.58 | 0.03 | 90 | 1005.1 | |
| 20260831035351 | 12 | 0.0 | 0.0 | 0.00 | 0.58 | 0.03 | 90 | 1005.2 | |
| 20260831034845 | 13 | 0.0 | 0.0 | 0.00 | 0.58 | 0.03 | 90 | 1005.1 | |
| 20260831034345 | 13 | 0.0 | 0.0 | 0.00 | 0.58 | 0.03 | 91 | 1005.1 | |
| 20260831033850 | 13 | 0.0 | 0.0 | 0.00 | 0.58 | 0.03 | 91 | 1005.2 | |
| 20260831033345 | 13 | 0.0 | 0.0 | 0.00 | 0.58 | 0.03 | 91 | 1005.1 | |
| 20260831032839 | 13 | 0.0 | 0.0 | 0.00 | 0.58 | 0.03 | 91 | 1005.0 | |
| 20260831032556 | 13 | 268 | 11.3 | 24.1 | 0.00 | 0.58 | 0.03 | 92 | 1005.0 |
| 20260831032342 | 13 | 268 | 11.3 | 24.1 | 0.00 | 0.58 | 0.03 | 92 | 1005.0 |
| 20260831031839 | 13 | 268 | 11.3 | 24.1 | 0.00 | 0.58 | 0.03 | 92 | 1004.9 |
| 20260831031340 | 13 | 252 | 8.0 | 19.3 | 0.00 | 0.58 | 0.03 | 92 | 1004.9 |
| 20260831031106 | 13 | 257 | 9.7 | 22.5 | 0.00 | 0.58 | 0.03 | 92 | 1004.8 |
| 20260831030951 | 13 | 268 | 9.7 | 19.3 | 0.00 | 0.58 | 0.03 | 92 | 1004.8 |
| 20260831025836 | 13 | 245 | 11.3 | 22.5 | 0.00 | 0.58 | 0.03 | 92 | 1004.6 |
| 20260831025651 | 14 | 254 | 9.7 | 17.7 | 0.00 | 0.58 | 0.03 | 92 | 1004.5 |
| 20260831024833 | 14 | 237 | 8.0 | 17.7 | 0.00 | 0.58 | 0.03 | 92 | 1004.4 |
| 20260831024333 | 14 | 247 | 8.0 | 19.3 | 0.00 | 0.58 | 0.03 | 93 | 1004.4 |
| 20260831023834 | 14 | 241 | 11.3 | 19.3 | 0.00 | 0.58 | 0.03 | 93 | 1004.4 |
| 20260831023331 | 14 | 258 | 9.7 | 19.3 | 0.00 | 0.58 | 0.03 | 93 | 1004.5 |
| 20260831022830 | 14 | 238 | 8.0 | 17.7 | 0.00 | 0.58 | 0.03 | 93 | 1004.5 |
| 20260831022325 | 14 | 259 | 9.7 | 16.1 | 0.00 | 0.58 | 0.03 | 93 | 1004.4 |
| 20260831021829 | 14 | 261 | 8.0 | 20.9 | 0.00 | 0.58 | 0.03 | 93 | 1004.4 |
| 20260831021323 | 14 | 262 | 6.4 | 20.9 | 0.00 | 0.58 | 0.03 | 93 | 1004.3 |
| 20260831021153 | 14 | 228 | 9.7 | 19.3 | 0.00 | 0.58 | 0.03 | 93 | 1004.2 |
| 20260831020329 | 14 | 241 | 9.7 | 17.7 | 0.00 | 0.58 | 0.03 | 93 | 1004.3 |
| 20260831015830 | 15 | 238 | 6.4 | 17.7 | 0.00 | 0.58 | 0.03 | 93 | 1004.2 |
| 20260831015327 | 15 | 264 | 8.0 | 17.7 | 0.03 | 0.58 | 0.03 | 93 | 1004.2 |
| 20260831015148 | 15 | 255 | 8.0 | 16.1 | 0.03 | 0.58 | 0.03 | 93 | 1004.2 |
| 20260831014630 | 15 | 247 | 8.0 | 20.9 | 0.03 | 0.58 | 0.03 | 93 | 1004.3 |
| 20260831013827 | 15 | 224 | 6.4 | 20.9 | 0.03 | 0.58 | 0.03 | 93 | 1004.3 |
| 20260831013323 | 15 | 250 | 4.8 | 16.1 | 0.03 | 0.58 | 0.03 | 93 | 1004.3 |
| 20260831012828 | 15 | 257 | 6.4 | 16.1 | 0.03 | 0.58 | 0.03 | 93 | 1004.4 |
| 20260831012328 | 15 | 226 | 6.4 | 14.5 | 0.03 | 0.58 | 0.03 | 93 | 1004.4 |
| 20260831011822 | 15 | 200 | 4.8 | 11.3 | 0.03 | 0.58 | 0.03 | 93 | 1004.3 |
| 20260831011316 | 15 | 212 | 4.8 | 14.5 | 0.03 | 0.58 | 0.03 | 93 | 1004.2 |
| 20260831010822 | 15 | 210 | 6.4 | 16.1 | 0.03 | 0.58 | 0.03 | 93 | 1004.3 |
| 20260831010319 | 15 | 210 | 3.2 | 16.1 | 0.03 | 0.58 | 0.03 | 93 | 1004.3 |
| 20260831010220 | 15 | 212 | 3.2 | 16.1 | 0.03 | 0.56 | 0.03 | 93 | 1004.3 |
| 20260831005315 | 15 | 180 | 8.0 | 16.1 | 0.00 | 0.56 | 0.00 | 93 | 1004.4 |
| 20260831004819 | 15 | 200 | 6.4 | 14.5 | 0.00 | 0.56 | 0.00 | 93 | 1004.5 |
| 20260831004315 | 15 | 199 | 4.8 | 16.1 | 0.00 | 0.56 | 0.00 | 93 | 1004.5 |
| 20260831004148 | 15 | 210 | 6.4 | 16.1 | 0.00 | 0.56 | 0.00 | 93 | 1004.6 |
| 20260831003313 | 15 | 152 | 4.8 | 14.5 | 0.00 | 0.56 | 0.00 | 92 | 1004.6 |
| 20260831002810 | 15 | 207 | 4.8 | 16.1 | 0.00 | 0.56 | 0.00 | 92 | 1004.6 |
| 20260831002311 | 15 | 192 | 4.8 | 16.1 | 0.00 | 0.56 | 0.00 | 92 | 1004.7 |
| 20260831001803 | 15 | 207 | 6.4 | 14.5 | 0.00 | 0.56 | 0.00 | 92 | 1004.6 |
| 20260831001307 | 15 | 199 | 4.8 | 14.5 | 0.00 | 0.56 | 0.00 | 92 | 1004.7 |
| 20260831000800 | 15 | 227 | 4.8 | 11.3 | 0.00 | 0.56 | 0.00 | 92 | 1004.8 |
| 20260831000300 | 15 | 212 | 4.8 | 11.3 | 0.00 | 0.56 | 0.00 | 92 | 1005.0 |
| 20260830235759 | 15 | 217 | 3.2 | 9.7 | 0.00 | 0.56 | 0.00 | 92 | 1004.9 |
| 20260830235300 | 15 | 204 | 3.2 | 14.5 | 0.00 | 0.56 | 0.00 | 92 | 1004.9 |
| 20260830234759 | 15 | 220 | 6.4 | 14.5 | 0.00 | 0.56 | 0.00 | 92 | 1004.9 |
| 20260830234257 | 15 | 257 | 4.8 | 16.1 | 0.00 | 0.58 | 0.00 | 92 | 1005.1 |
| 20260830233755 | 15 | 206 | 6.4 | 16.1 | 0.00 | 0.58 | 0.00 | 92 | 1005.3 |
| 20260830233253 | 15 | 130 | 6.4 | 14.5 | 0.00 | 0.58 | 0.00 | 92 | 1005.3 |
| 20260830232756 | 15 | 214 | 6.4 | 17.7 | 0.00 | 0.58 | 0.00 | 92 | 1005.3 |
| 20260830232552 | 15 | 237 | 6.4 | 17.7 | 0.00 | 0.58 | 0.00 | 92 | 1005.3 |
| 20260830231750 | 15 | 217 | 6.4 | 16.1 | 0.00 | 0.58 | 0.00 | 92 | 1005.4 |
| 20260830231253 | 15 | 196 | 8.0 | 16.1 | 0.00 | 0.58 | 0.00 | 92 | 1005.3 |
| 20260830230751 | 15 | 233 | 3.2 | 16.1 | 0.00 | 0.58 | 0.00 | 92 | 1005.4 |
| 20260830230247 | 15 | 227 | 6.4 | 16.1 | 0.00 | 0.58 | 0.00 | 92 | 1005.5 |
| 20260830230105 | 15 | 247 | 8.0 | 20.9 | 0.00 | 0.58 | 0.58 | 92 | 1005.4 |
| 20260830225900 | 15 | 223 | 9.7 | 20.9 | 0.00 | 0.58 | 0.58 | 92 | 1005.5 |
| 20260830225844 | 15 | 247 | 8.0 | 20.9 | 0.00 | 0.58 | 0.58 | 92 | 1005.4 |
| 20260830224743 | 15 | 234 | 8.0 | 16.1 | 0.00 | 0.58 | 0.58 | 92 | 1005.5 |
| 20260830224242 | 15 | 230 | 8.0 | 20.9 | 0.05 | 0.58 | 0.58 | 92 | 1005.6 |
| 20260830223740 | 15 | 266 | 8.0 | 22.5 | 0.08 | 0.58 | 0.58 | 91 | 1005.6 |
| 20260830223439 | 15 | 210 | 8.0 | 22.5 | 0.13 | 0.58 | 0.58 | 91 | 1005.6 |
| 20260830223008 | 15 | 197 | 8.0 | 17.7 | 0.15 | 0.58 | 0.58 | 91 | 1005.7 |
| 20260830222748 | 15 | 197 | 8.0 | 17.7 | 0.15 | 0.58 | 0.58 | 91 | 1005.7 |
| 20260830222237 | 15 | 220 | 8.0 | 20.9 | 0.15 | 0.58 | 0.58 | 91 | 1005.7 |
| 20260830221742 | 15 | 244 | 8.0 | 20.9 | 0.15 | 0.58 | 0.58 | 91 | 1005.8 |
| 20260830221237 | 15 | 247 | 14.5 | 22.5 | 0.30 | 0.58 | 0.58 | 91 | 1005.7 |
| 20260830220740 | 15 | 220 | 11.3 | 22.5 | 0.41 | 0.58 | 0.58 | 91 | 1005.8 |
| 20260830220240 | 15 | 251 | 12.9 | 24.1 | 0.51 | 0.58 | 0.58 | 91 | 1005.7 |
| 20260830215738 | 15 | 254 | 12.9 | 25.7 | 0.51 | 0.08 | 0.58 | 90 | 1005.7 |
| 20260830215237 | 15 | 219 | 11.3 | 30.6 | 0.51 | 0.08 | 0.58 | 90 | 1005.9 |
| 20260830214739 | 15 | 258 | 16.1 | 35.4 | 0.48 | 0.08 | 0.56 | 89 | 1005.7 |
| 20260830214242 | 15 | 233 | 22.5 | 35.4 | 0.48 | 0.08 | 0.53 | 89 | 1005.8 |
| 20260830213740 | 16 | 268 | 14.5 | 27.4 | 0.48 | 0.08 | 0.51 | 88 | 1005.4 |
| 20260830213241 | 16 | 243 | 12.9 | 27.4 | 0.43 | 0.08 | 0.46 | 88 | 1005.3 |
| 20260830212739 | 16 | 221 | 9.7 | 32.2 | 0.43 | 0.08 | 0.43 | 88 | 1005.3 |
| 20260830212248 | 16 | 213 | 12.9 | 32.2 | 0.43 | 0.08 | 0.43 | 87 | 1005.3 |
| 20260830211738 | 17 | 195 | 6.4 | 14.5 | 0.41 | 0.08 | 0.43 | 87 | 1005.5 |
| 20260830211244 | 17 | 265 | 3.2 | 8.0 | 0.25 | 0.08 | 0.25 | 86 | 1005.4 |
| 20260830210746 | 17 | 169 | 1.6 | 8.0 | 0.15 | 0.08 | 0.18 | 85 | 1005.4 |
| 20260830210234 | 17 | 188 | 4.8 | 6.4 | 0.05 | 0.08 | 0.08 | 85 | 1005.4 |
| 20260830205735 | 17 | 207 | 1.6 | 9.7 | 0.05 | 0.03 | 0.08 | 84 | 1005.4 |
| 20260830205235 | 17 | 186 | 3.2 | 9.7 | 0.05 | 0.03 | 0.08 | 84 | 1005.4 |
| 20260830204733 | 17 | 247 | 3.2 | 17.7 | 0.05 | 0.03 | 0.08 | 83 | 1005.6 |
| 20260830204230 | 17 | 203 | 6.4 | 17.7 | 0.03 | 0.03 | 0.05 | 82 | 1005.9 |
| 20260830204219 | 17 | 200 | 9.7 | 17.7 | 0.00 | 0.03 | 0.03 | 80 | 1005.9 |
| 20260830203453 | 17 | 186 | 6.4 | 17.7 | 0.00 | 0.03 | 0.03 | 80 | 1005.8 |
| 20260830203240 | 17 | 186 | 6.4 | 17.7 | 0.00 | 0.03 | 0.03 | 80 | 1005.8 |
| 20260830202732 | 17 | 197 | 6.4 | 17.7 | 0.00 | 0.03 | 0.03 | 80 | 1006.0 |
| 20260830202232 | 17 | 237 | 8.0 | 16.1 | 0.00 | 0.03 | 0.03 | 79 | 1006.1 |
| 20260830201948 | 17 | 214 | 3.2 | 17.7 | 0.00 | 0.03 | 0.03 | 78 | 1006.1 |
| 20260830201900 | 17 | 171 | 4.8 | 17.7 | 0.00 | 0.03 | 0.03 | 79 | 1006.1 |
| 20260830200731 | 17 | 217 | 6.4 | 11.3 | 0.00 | 0.03 | 0.03 | 78 | 1006.1 |
| 20260830200231 | 17 | 159 | 4.8 | 16.1 | 0.00 | 0.03 | 0.03 | 77 | 1006.1 |
| 20260830195736 | 17 | 186 | 4.8 | 20.9 | 0.00 | 0.03 | 0.03 | 77 | 1006.2 |
| 20260830195233 | 17 | 220 | 6.4 | 20.9 | 0.00 | 0.03 | 0.03 | 77 | 1006.2 |
| 20260830194727 | 17 | 240 | 6.4 | 14.5 | 0.00 | 0.03 | 0.03 | 77 | 1006.2 |
| 20260830194226 | 18 | 165 | 4.8 | 14.5 | 0.00 | 0.03 | 0.03 | 76 | 1006.1 |
| 20260830193725 | 18 | 196 | 3.2 | 16.1 | 0.00 | 0.03 | 0.03 | 76 | 1006.2 |
| 20260830193226 | 18 | 219 | 6.4 | 17.7 | 0.00 | 0.03 | 0.03 | 76 | 1006.2 |
| 20260830193204 | 18 | 234 | 8.0 | 17.7 | 0.00 | 0.03 | 0.03 | 76 | 1006.4 |
| 20260830192223 | 18 | 189 | 3.2 | 14.5 | 0.00 | 0.03 | 0.03 | 75 | 1006.5 |
| 20260830191729 | 18 | 224 | 6.4 | 19.3 | 0.00 | 0.03 | 0.03 | 75 | 1006.4 |
| 20260830191229 | 18 | 235 | 8.0 | 19.3 | 0.00 | 0.03 | 0.03 | 74 | 1006.5 |
| 20260830190802 | 18 | 235 | 12.9 | 19.3 | 0.00 | 0.03 | 0.03 | 74 | 1006.6 |
| 20260830190722 | 18 | 213 | 6.4 | 19.3 | 0.00 | 0.03 | 0.03 | 74 | 1006.6 |
| 20260830190540 | 18 | 235 | 12.9 | 19.3 | 0.00 | 0.03 | 0.03 | 74 | 1006.6 |
| 20260830185724 | 18 | 231 | 6.4 | 19.3 | 0.00 | 0.03 | 0.03 | 74 | 1006.6 |
| 20260830185219 | 18 | 261 | 9.7 | 25.7 | 0.00 | 0.03 | 0.03 | 74 | 1006.6 |
| 20260830184720 | 18 | 220 | 8.0 | 25.7 | 0.00 | 0.03 | 0.03 | 73 | 1006.7 |
| 20260830184219 | 18 | 223 | 9.7 | 32.2 | 0.00 | 0.03 | 0.03 | 74 | 1006.7 |
| 20260830183719 | 18 | 223 | 8.0 | 32.2 | 0.00 | 0.03 | 0.03 | 73 | 1006.6 |